Time,TemperatureF,DewpointF,PressureIn,WindDirection,WindDirectionDegrees,WindSpeedMPH,WindSpeedGustMPH,Humidity,HourlyPrecipIn,Conditions,Clouds,dailyrainin,SoftwareType,DateUTC
2013-03-25 00:00:00,27.7,12.3,30.09,North,1,0.0,0.0,52,0.00,BKN,SKC,0.00,WeatherDisplay:10.37,2013-03-24 23:00:00,
2013-03-25 00:10:00,27.7,12.3,30.08,North,1,0.0,0.0,52,0.00,BKN,SKC,0.00,WeatherDisplay:10.37,2013-03-24 23:10:00,
2013-03-25 00:20:00,27.5,12.2,30.09,North,1,0.0,0.0,52,0.00,BKN,SKC,0.00,WeatherDisplay:10.37,2013-03-24 23:20:00,
2013-03-25 00:30:00,27.3,11.5,30.08,North,1,0.0,0.0,51,0.00,BKN,SKC,0.00,WeatherDisplay:10.37,2013-03-24 23:30:00,
2013-03-25 00:40:00,27.3,11.5,30.07,North,1,0.0,0.0,51,0.00,BKN,SKC,0.00,WeatherDisplay:10.37,2013-03-24 23:40:00,
2013-03-25 00:50:00,27.3,11.5,30.08,North,1,0.0,0.0,51,0.00,BKN,SKC,0.00,WeatherDisplay:10.37,2013-03-24 23:50:00,
2013-03-25 01:00:00,27.3,11.1,30.08,North,1,0.0,0.0,50,0.00,BKN,SKC,0.00,WeatherDisplay:10.37,2013-03-25 00:00:00,
2013-03-25 01:10:00,27.3,11.1,30.07,North,1,0.0,0.0,50,0.00,BKN,SKC,0.00,WeatherDisplay:10.37,2013-03-25 00:10:00,
2013-03-25 01:20:00,27.3,11.1,30.07,North,1,0.0,0.0,50,0.00,BKN,SKC,0.00,WeatherDisplay:10.37,2013-03-25 00:20:00,
2013-03-25 01:30:00,27.2,11.5,30.06,North,1,0.0,0.0,51,0.00,BKN,SKC,0.00,WeatherDisplay:10.37,2013-03-25 00:30:00,
2013-03-25 01:40:00,27.3,11.5,30.06,North,1,0.0,0.0,51,0.00,BKN,SKC,0.00,WeatherDisplay:10.37,2013-03-25 00:40:00,
2013-03-25 01:50:00,27.3,12.0,30.06,North,1,0.0,0.0,52,0.00,CLR,SKC,0.00,WeatherDisplay:10.37,2013-03-25 00:50:00,
2013-03-25 02:00:00,27.3,12.0,30.05,North,1,0.0,0.0,52,0.00,CLR,SKC,0.00,WeatherDisplay:10.37,2013-03-25 01:00:00,
2013-03-25 02:10:00,27.1,12.3,30.05,North,1,0.0,0.0,53,0.00,CLR,SKC,0.00,WeatherDisplay:10.37,2013-03-25 01:10:00,
2013-03-25 02:20:00,27.1,11.4,30.04,North,1,0.0,0.0,51,0.00,CLR,SKC,0.00,WeatherDisplay:10.37,2013-03-25 01:20:00,
2013-03-25 02:30:00,27.1,11.4,30.05,North,1,0.0,0.0,51,0.00,CLR,SKC,0.00,WeatherDisplay:10.37,2013-03-25 01:30:00,
2013-03-25 02:40:00,27.1,11.4,30.05,North,1,0.0,0.0,51,0.00,CLR,SKC,0.00,WeatherDisplay:10.37,2013-03-25 01:40:00,
2013-03-25 02:50:00,27.1,11.4,30.05,North,1,0.0,0.0,51,0.00,CLR,SKC,0.00,WeatherDisplay:10.37,2013-03-25 01:50:00,
2013-03-25 03:00:00,27.1,11.4,30.05,North,1,0.0,0.0,51,0.00,BKN,SKC,0.00,WeatherDisplay:10.37,2013-03-25 02:00:00,
2013-03-25 03:10:00,27.1,10.9,30.04,North,1,0.0,0.0,50,0.00,BKN,SKC,0.00,WeatherDisplay:10.37,2013-03-25 02:10:00,
2013-03-25 03:20:00,27.1,10.9,30.04,North,1,0.0,0.0,50,0.00,BKN,SKC,0.00,WeatherDisplay:10.37,2013-03-25 02:20:00,
2013-03-25 03:30:00,27.1,10.9,30.03,North,1,0.0,0.0,50,0.00,BKN,SKC,0.00,WeatherDisplay:10.37,2013-03-25 02:30:00,
2013-03-25 03:40:00,27.1,10.9,30.03,North,1,0.0,0.0,50,0.00,BKN,SKC,0.00,WeatherDisplay:10.37,2013-03-25 02:40:00,
2013-03-25 03:50:00,27.1,10.9,30.03,North,1,0.0,0.0,50,0.00,BKN,SKC,0.00,WeatherDisplay:10.37,2013-03-25 02:50:00,
2013-03-25 04:00:00,27.1,11.4,30.03,North,1,0.0,0.0,51,0.00,CLR,SKC,0.00,WeatherDisplay:10.37,2013-03-25 03:00:00,
2013-03-25 04:10:00,27.1,11.4,30.03,North,1,0.0,0.0,51,0.00,CLR,SKC,0.00,WeatherDisplay:10.37,2013-03-25 03:10:00,
2013-03-25 04:20:00,27.0,11.2,30.02,North,1,0.0,0.0,51,0.00,CLR,SKC,0.00,WeatherDisplay:10.37,2013-03-25 03:20:00,
2013-03-25 04:30:00,27.0,11.2,30.02,North,1,0.0,0.0,51,0.00,CLR,SKC,0.00,WeatherDisplay:10.37,2013-03-25 03:30:00,
2013-03-25 04:40:00,27.0,11.2,30.02,North,1,0.0,0.0,51,0.00,CLR,SKC,0.00,WeatherDisplay:10.37,2013-03-25 03:40:00,
2013-03-25 04:50:00,27.0,11.2,30.02,North,1,0.0,0.0,51,0.00,CLR,SKC,0.00,WeatherDisplay:10.37,2013-03-25 03:50:00,
2013-03-25 05:00:00,26.9,11.6,30.01,North,1,0.0,0.0,52,0.00,BKN,SKC,0.00,WeatherDisplay:10.37,2013-03-25 04:00:00,
2013-03-25 05:10:00,26.8,11.5,30.02,North,1,0.0,0.0,52,0.00,BKN,SKC,0.00,WeatherDisplay:10.37,2013-03-25 04:10:00,
2013-03-25 05:20:00,26.8,11.5,30.01,North,1,0.0,0.0,52,0.00,BKN,SKC,0.00,WeatherDisplay:10.37,2013-03-25 04:20:00,
2013-03-25 05:30:00,26.8,11.5,30.01,North,1,0.0,0.0,52,0.00,BKN,SKC,0.00,WeatherDisplay:10.37,2013-03-25 04:30:00,
2013-03-25 05:40:00,26.8,11.9,30.01,North,1,0.0,0.0,53,0.00,BKN,SKC,0.00,WeatherDisplay:10.37,2013-03-25 04:40:00,
2013-03-25 05:50:00,26.8,11.9,30.01,North,1,0.0,0.0,53,0.00,BKN,SKC,0.00,WeatherDisplay:10.37,2013-03-25 04:50:00,
2013-03-25 06:00:00,26.8,11.9,30.02,North,1,0.0,0.0,53,0.00,OVC,SKC,0.00,WeatherDisplay:10.37,2013-03-25 05:00:00,
2013-03-25 06:10:00,26.8,11.9,30.01,North,1,0.0,0.0,53,0.00,OVC,SKC,0.00,WeatherDisplay:10.37,2013-03-25 05:10:00,
2013-03-25 06:20:00,27.0,12.1,30.01,North,1,0.0,0.0,53,0.00,OVC,SKC,0.00,WeatherDisplay:10.37,2013-03-25 05:20:00,
2013-03-25 06:30:00,27.0,12.1,30.01,North,1,0.0,0.0,53,0.00,BKN,SKC,0.00,WeatherDisplay:10.37,2013-03-25 05:30:00,
2013-03-25 06:40:00,27.0,11.7,30.01,North,1,0.0,0.0,52,0.00,BKN,SKC,0.00,WeatherDisplay:10.37,2013-03-25 05:40:00,
2013-03-25 06:50:00,27.1,11.8,30.00,North,1,0.0,0.0,52,0.00,BKN,SKC,0.00,WeatherDisplay:10.37,2013-03-25 05:50:00,
2013-03-25 07:00:00,27.1,11.8,30.00,North,1,0.0,0.0,52,0.00,BKN,SKC,0.00,WeatherDisplay:10.37,2013-03-25 06:00:00,
2013-03-25 07:10:00,27.1,11.8,30.00,North,1,0.0,0.0,52,0.00,BKN,SKC,0.00,WeatherDisplay:10.37,2013-03-25 06:10:00,
2013-03-25 07:20:00,27.3,12.0,30.00,North,1,0.0,0.0,52,0.00,BKN,SKC,0.00,WeatherDisplay:10.37,2013-03-25 06:20:00,
2013-03-25 07:30:00,27.3,11.5,30.00,North,1,0.0,0.0,51,0.00,OVC,SKC,0.00,WeatherDisplay:10.37,2013-03-25 06:30:00,
2013-03-25 07:40:00,27.5,11.7,30.01,North,1,0.0,0.0,51,0.00,OVC,SKC,0.00,WeatherDisplay:10.37,2013-03-25 06:40:00,
2013-03-25 07:50:00,27.7,11.9,30.01,North,1,0.0,0.0,51,0.00,OVC,SKC,0.00,WeatherDisplay:10.37,2013-03-25 06:50:00,
2013-03-25 08:00:00,27.7,11.9,30.00,North,1,0.0,0.0,51,0.00,OVC,SKC,0.00,WeatherDisplay:10.37,2013-03-25 07:00:00,
2013-03-25 08:10:00,27.7,11.9,30.00,North,1,0.0,0.0,51,0.00,OVC,SKC,0.00,WeatherDisplay:10.37,2013-03-25 07:10:00,
2013-03-25 08:20:00,28.0,12.2,30.00,North,1,0.0,0.0,51,0.00,OVC,SKC,0.00,WeatherDisplay:10.37,2013-03-25 07:20:00,
2013-03-25 08:30:00,28.2,12.4,30.00,North,1,0.0,0.0,51,0.00,BKN,SKC,0.00,WeatherDisplay:10.37,2013-03-25 07:30:00,
2013-03-25 08:40:00,28.6,12.7,29.98,North,1,0.0,0.0,51,0.00,BKN,SKC,0.00,WeatherDisplay:10.37,2013-03-25 07:40:00,
2013-03-25 08:50:00,28.6,12.7,29.99,North,1,0.0,0.0,51,0.00,BKN,SKC,0.00,WeatherDisplay:10.37,2013-03-25 07:50:00,
2013-03-25 09:00:00,28.9,12.6,29.99,North,1,0.0,0.0,50,0.00,BKN,SKC,0.00,WeatherDisplay:10.37,2013-03-25 08:00:00,
2013-03-25 09:10:00,29.1,13.2,29.98,North,1,0.0,0.0,51,0.00,BKN,SKC,0.00,WeatherDisplay:10.37,2013-03-25 08:10:00,
2013-03-25 09:20:00,29.3,12.9,29.98,North,1,0.0,0.0,50,0.00,BKN,SKC,0.00,WeatherDisplay:10.37,2013-03-25 08:20:00,
2013-03-25 09:30:00,29.5,12.6,29.97,North,1,0.0,0.0,49,0.00,BKN,SKC,0.00,WeatherDisplay:10.37,2013-03-25 08:30:00,
2013-03-25 09:40:00,29.8,13.4,29.97,North,1,0.0,0.0,50,0.00,BKN,SKC,0.00,WeatherDisplay:10.37,2013-03-25 08:40:00,
2013-03-25 09:50:00,30.0,13.6,29.97,North,1,0.0,0.0,50,0.00,OVC,SKC,0.00,WeatherDisplay:10.37,2013-03-25 08:50:00,
2013-03-25 10:00:00,30.1,13.3,29.95,North,1,0.0,0.0,49,0.00,OVC,SKC,0.00,WeatherDisplay:10.37,2013-03-25 09:00:00,
2013-03-25 10:10:00,30.4,13.5,29.96,North,1,0.0,0.0,49,0.00,OVC,SKC,0.00,WeatherDisplay:10.37,2013-03-25 09:10:00,
2013-03-25 10:20:00,30.6,13.6,29.95,North,1,0.0,0.0,49,0.00,OVC,SKC,0.00,WeatherDisplay:10.37,2013-03-25 09:20:00,
2013-03-25 10:30:00,30.9,13.9,29.94,North,1,0.0,0.0,49,0.00,OVC,SKC,0.00,WeatherDisplay:10.37,2013-03-25 09:30:00,
2013-03-25 10:40:00,30.9,14.0,29.93,North,1,0.0,0.0,49,0.00,OVC,SKC,0.00,WeatherDisplay:10.37,2013-03-25 09:40:00,
2013-03-25 10:50:00,31.1,14.1,29.92,North,1,0.0,0.0,49,0.00,OVC,SKC,0.00,WeatherDisplay:10.37,2013-03-25 09:50:00,
2013-03-25 11:01:00,31.3,14.3,29.92,North,1,0.0,0.0,49,0.00,OVC,SKC,0.00,WeatherDisplay:10.37,2013-03-25 10:01:00,
2013-03-25 11:10:00,31.6,14.6,29.92,North,1,0.0,0.0,49,0.00,OVC,SKC,0.00,WeatherDisplay:10.37,2013-03-25 10:10:00,
2013-03-25 11:20:00,31.6,15.1,29.91,North,1,0.0,0.0,50,0.00,OVC,SKC,0.00,WeatherDisplay:10.37,2013-03-25 10:20:00,
2013-03-25 11:31:00,31.8,14.8,29.89,North,1,0.0,0.0,49,0.00,OVC,SKC,0.00,WeatherDisplay:10.37,2013-03-25 10:31:00,
2013-03-25 11:40:00,31.8,14.8,29.90,North,1,0.0,0.0,49,0.00,OVC,SKC,0.00,WeatherDisplay:10.37,2013-03-25 10:40:00,
2013-03-25 11:50:00,32.2,15.6,29.89,North,1,0.0,0.0,50,0.00,OVC,SKC,0.00,WeatherDisplay:10.37,2013-03-25 10:50:00,
2013-03-25 12:00:00,32.4,15.8,29.89,North,1,0.0,0.0,50,0.00,OVC,SKC,0.00,WeatherDisplay:10.37,2013-03-25 11:00:00,
2013-03-25 12:10:00,32.5,15.9,29.88,North,1,0.0,0.0,50,0.00,OVC,SKC,0.00,WeatherDisplay:10.37,2013-03-25 11:10:00,
2013-03-25 12:20:00,32.5,15.5,29.88,North,1,0.0,0.0,49,0.00,OVC,SKC,0.00,WeatherDisplay:10.37,2013-03-25 11:20:00,
2013-03-25 12:30:00,32.7,15.6,29.88,North,1,0.0,0.0,49,0.00,OVC,SKC,0.00,WeatherDisplay:10.37,2013-03-25 11:30:00,
2013-03-25 12:40:00,32.8,15.7,29.88,North,1,0.0,0.0,49,0.00,OVC,SKC,0.00,WeatherDisplay:10.37,2013-03-25 11:40:00,
2013-03-25 12:50:00,32.9,15.8,29.89,North,1,0.0,0.0,49,0.00,OVC,SKC,0.00,WeatherDisplay:10.37,2013-03-25 11:50:00,
2013-03-25 13:00:00,33.1,16.0,29.89,North,1,0.0,0.0,49,0.00,-SN,SKC,0.00,WeatherDisplay:10.37,2013-03-25 12:00:00,
2013-03-25 13:10:00,33.3,16.1,29.89,North,1,0.0,0.0,49,0.00,-SN,SKC,0.00,WeatherDisplay:10.37,2013-03-25 12:10:00,
2013-03-25 13:20:00,33.4,16.8,29.89,North,1,0.0,0.0,50,0.00,BKN,SKC,0.00,WeatherDisplay:10.37,2013-03-25 12:20:00,
2013-03-25 13:31:00,33.3,17.1,29.88,North,1,0.0,0.0,51,0.00,BKN,SKC,0.00,WeatherDisplay:10.37,2013-03-25 12:31:00,
2013-03-25 13:40:00,32.7,18.3,29.89,North,1,0.0,0.0,55,0.00,BKN,SKC,0.00,WeatherDisplay:10.37,2013-03-25 12:40:00,
2013-03-25 13:50:00,32.2,19.0,29.88,North,1,0.0,0.0,58,0.00,-SN,SKC,0.00,WeatherDisplay:10.37,2013-03-25 12:50:00,
2013-03-25 14:00:00,31.7,20.5,29.87,North,1,0.0,0.0,63,0.00,-SN,SKC,0.00,WeatherDisplay:10.37,2013-03-25 13:00:00,
2013-03-25 14:10:00,31.1,21.0,29.88,North,1,0.0,0.0,66,0.00,-SN,SKC,0.00,WeatherDisplay:10.37,2013-03-25 13:10:00,
2013-03-25 14:20:00,30.7,21.8,29.87,North,1,0.0,0.0,69,0.00,-SN,SKC,0.00,WeatherDisplay:10.37,2013-03-25 13:20:00,
2013-03-25 14:30:00,30.3,22.0,29.86,North,1,0.0,0.0,71,0.00,-SN,SKC,0.00,WeatherDisplay:10.37,2013-03-25 13:30:00,
2013-03-25 14:40:00,30.0,22.4,29.85,North,1,0.0,0.0,73,0.00,-SN,SKC,0.00,WeatherDisplay:10.37,2013-03-25 13:40:00,
2013-03-25 14:50:00,29.9,22.9,29.84,North,1,0.0,0.0,75,0.00,-SN,SKC,0.00,WeatherDisplay:10.37,2013-03-25 13:50:00,
2013-03-25 15:00:00,29.8,23.5,29.84,North,1,0.0,0.0,77,0.00,-SN,SKC,0.00,WeatherDisplay:10.37,2013-03-25 14:00:00,
2013-03-25 15:10:00,29.5,23.5,29.83,North,1,0.0,0.0,78,0.00,-SN,SKC,0.00,WeatherDisplay:10.37,2013-03-25 14:10:00,
2013-03-25 15:20:00,29.5,23.8,29.83,North,1,0.0,0.0,79,0.00,-SN,SKC,0.00,WeatherDisplay:10.37,2013-03-25 14:20:00,
2013-03-25 15:30:00,29.3,23.9,29.83,North,1,0.0,0.0,80,0.00,-SN,SKC,0.00,WeatherDisplay:10.37,2013-03-25 14:30:00,
2013-03-25 15:40:00,29.1,24.0,29.82,North,1,0.0,0.0,81,0.00,-SN,SKC,0.00,WeatherDisplay:10.37,2013-03-25 14:40:00,
2013-03-25 15:50:00,29.1,24.3,29.82,North,1,0.0,0.0,82,0.00,OVC,SKC,0.00,WeatherDisplay:10.37,2013-03-25 14:50:00,
2013-03-25 16:00:00,29.1,24.6,29.81,North,1,0.0,0.0,83,0.00,OVC,SKC,0.00,WeatherDisplay:10.37,2013-03-25 15:00:00,
2013-03-25 16:10:00,29.1,24.9,29.81,North,1,0.0,0.0,84,0.00,OVC,SKC,0.00,WeatherDisplay:10.37,2013-03-25 15:10:00,
2013-03-25 16:20:00,29.1,25.2,29.81,North,1,0.0,0.0,85,0.00,OVC,SKC,0.00,WeatherDisplay:10.37,2013-03-25 15:20:00,
2013-03-25 16:30:00,29.2,25.2,29.80,North,1,0.0,0.0,85,0.00,OVC,SKC,0.00,WeatherDisplay:10.37,2013-03-25 15:30:00,
2013-03-25 16:40:00,29.1,25.2,29.80,North,1,0.0,0.0,85,0.00,OVC,SKC,0.00,WeatherDisplay:10.37,2013-03-25 15:40:00,
2013-03-25 16:50:00,29.1,25.2,29.79,North,1,0.0,0.0,85,0.00,OVC,SKC,0.00,WeatherDisplay:10.37,2013-03-25 15:50:00,
2013-03-25 17:00:00,29.1,25.5,29.79,North,1,0.0,0.0,86,0.00,OVC,SKC,0.00,WeatherDisplay:10.37,2013-03-25 16:00:00,
2013-03-25 17:10:00,29.1,25.5,29.79,North,1,0.0,0.0,86,0.00,OVC,SKC,0.00,WeatherDisplay:10.37,2013-03-25 16:10:00,
2013-03-25 17:20:00,28.9,25.3,29.79,North,1,0.0,0.0,86,0.00,OVC,SKC,0.00,WeatherDisplay:10.37,2013-03-25 16:20:00,
2013-03-25 17:30:00,28.9,25.3,29.78,North,1,0.0,0.0,86,0.00,OVC,SKC,0.00,WeatherDisplay:10.37,2013-03-25 16:30:00,
2013-03-25 17:40:00,28.6,25.2,29.78,North,1,0.0,0.0,87,0.00,OVC,SKC,0.00,WeatherDisplay:10.37,2013-03-25 16:40:00,
2013-03-25 17:50:00,28.6,25.2,29.78,North,1,0.0,0.0,87,0.00,-SN,SKC,0.00,WeatherDisplay:10.37,2013-03-25 16:50:00,
2013-03-25 18:00:00,28.4,25.1,29.78,North,1,0.0,0.0,87,0.00,-SN,SKC,0.00,WeatherDisplay:10.37,2013-03-25 17:00:00,
2013-03-25 18:10:00,28.2,24.8,29.78,North,1,0.0,0.0,87,0.00,-SN,SKC,0.00,WeatherDisplay:10.37,2013-03-25 17:10:00,
2013-03-25 18:20:00,28.2,24.8,29.78,North,1,0.0,0.0,87,0.00,-SN,SKC,0.00,WeatherDisplay:10.37,2013-03-25 17:20:00,
2013-03-25 18:30:00,28.2,24.8,29.78,North,1,0.0,0.0,87,0.00,-SN,SKC,0.00,WeatherDisplay:10.37,2013-03-25 17:30:00,
2013-03-25 18:40:00,28.2,24.8,29.77,North,1,0.0,0.0,87,0.00,-SN,SKC,0.00,WeatherDisplay:10.37,2013-03-25 17:40:00,
2013-03-25 18:50:00,28.2,25.1,29.77,North,1,0.0,0.0,88,0.00,-SN,SKC,0.00,WeatherDisplay:10.37,2013-03-25 17:50:00,
2013-03-25 19:00:00,28.2,25.1,29.77,North,1,0.0,0.0,88,0.00,-SN,SKC,0.00,WeatherDisplay:10.37,2013-03-25 18:00:00,
2013-03-25 19:10:00,28.2,25.1,29.77,North,1,0.0,0.0,88,0.00,-SN,SKC,0.00,WeatherDisplay:10.37,2013-03-25 18:10:00,
2013-03-25 19:20:00,28.2,25.1,29.77,North,1,0.0,0.0,88,0.00,-SN,SKC,0.00,WeatherDisplay:10.37,2013-03-25 18:20:00,
2013-03-25 19:30:00,28.2,25.1,29.76,North,1,0.0,0.0,88,0.00,-SN,SKC,0.00,WeatherDisplay:10.37,2013-03-25 18:30:00,
2013-03-25 19:40:00,28.2,25.1,29.77,North,1,0.0,0.0,88,0.00,-SN,SKC,0.00,WeatherDisplay:10.37,2013-03-25 18:40:00,
2013-03-25 19:50:00,28.2,25.1,29.76,North,1,0.0,0.0,88,0.00,-SN,SKC,0.00,WeatherDisplay:10.37,2013-03-25 18:50:00,
2013-03-25 20:00:00,28.0,24.9,29.76,North,1,0.0,0.0,88,0.00,-SN,SKC,0.00,WeatherDisplay:10.37,2013-03-25 19:00:00,
2013-03-25 20:10:00,27.8,24.7,29.76,North,1,0.0,0.0,88,0.00,-SN,SKC,0.00,WeatherDisplay:10.37,2013-03-25 19:10:00,
2013-03-25 20:20:00,27.7,24.6,29.75,North,1,0.0,0.0,88,0.00,-SN,SKC,0.00,WeatherDisplay:10.37,2013-03-25 19:20:00,
2013-03-25 20:30:00,27.7,24.9,29.75,North,1,0.0,0.0,89,0.00,-SN,SKC,0.00,WeatherDisplay:10.37,2013-03-25 19:30:00,
2013-03-25 20:40:00,27.7,24.9,29.74,North,1,0.0,0.0,89,0.00,-SN,SKC,0.00,WeatherDisplay:10.37,2013-03-25 19:40:00,
2013-03-25 20:50:00,27.5,24.7,29.74,North,1,0.0,0.0,89,0.00,-SN,SKC,0.00,WeatherDisplay:10.37,2013-03-25 19:50:00,
2013-03-25 21:00:00,27.5,24.7,29.74,North,1,0.0,0.0,89,0.00,-SN,SKC,0.00,WeatherDisplay:10.37,2013-03-25 20:00:00,
2013-03-25 21:10:00,27.5,24.7,29.74,North,1,0.0,0.0,89,0.00,-SN,SKC,0.00,WeatherDisplay:10.37,2013-03-25 20:10:00,
2013-03-25 21:20:00,27.5,24.7,29.73,North,1,0.0,0.0,89,0.00,-SN,SKC,0.00,WeatherDisplay:10.37,2013-03-25 20:20:00,
2013-03-25 21:30:00,27.5,24.7,29.74,North,1,0.0,0.0,89,0.00,-SN,SKC,0.00,WeatherDisplay:10.37,2013-03-25 20:30:00,
2013-03-25 21:40:00,27.5,24.7,29.73,North,1,0.0,0.0,89,0.00,-SN,SKC,0.00,WeatherDisplay:10.37,2013-03-25 20:40:00,
2013-03-25 21:50:00,27.5,24.7,29.74,North,1,0.0,0.0,89,0.00,-SN,SKC,0.00,WeatherDisplay:10.37,2013-03-25 20:50:00,
2013-03-25 22:00:00,27.5,24.7,29.73,North,1,0.0,0.0,89,0.00,-SN,SKC,0.00,WeatherDisplay:10.37,2013-03-25 21:00:00,
2013-03-25 22:10:00,27.7,24.9,29.73,North,1,0.0,0.0,89,0.00,-SN,SKC,0.00,WeatherDisplay:10.37,2013-03-25 21:10:00,
2013-03-25 22:21:00,27.6,24.8,29.73,North,1,0.0,0.0,89,0.00,-SN,SKC,0.00,WeatherDisplay:10.37,2013-03-25 21:21:00,
2013-03-25 22:30:00,27.5,24.7,29.73,North,1,0.0,0.0,89,0.00,-SN,SKC,0.00,WeatherDisplay:10.37,2013-03-25 21:30:00,
2013-03-25 22:40:00,27.7,24.9,29.73,North,1,0.0,0.0,89,0.00,-SN,SKC,0.00,WeatherDisplay:10.37,2013-03-25 21:40:00,
2013-03-25 22:50:00,27.7,24.9,29.73,North,1,0.0,0.0,89,0.00,-SN,SKC,0.00,WeatherDisplay:10.37,2013-03-25 21:50:00,
2013-03-25 23:01:00,27.7,24.9,29.73,North,1,0.0,0.0,89,0.00,-SN,SKC,0.00,WeatherDisplay:10.37,2013-03-25 22:01:00,
2013-03-25 23:10:00,27.7,24.9,29.72,North,1,0.0,0.0,89,0.00,-SN,SKC,0.00,WeatherDisplay:10.37,2013-03-25 22:10:00,
2013-03-25 23:20:00,27.5,24.7,29.73,North,1,0.0,0.0,89,0.00,-SN,SKC,0.00,WeatherDisplay:10.37,2013-03-25 22:20:00,
2013-03-25 23:30:00,27.7,24.9,29.72,North,1,0.0,0.0,89,0.00,-SN,SKC,0.00,WeatherDisplay:10.37,2013-03-25 22:30:00,
2013-03-25 23:40:00,27.5,24.7,29.72,North,1,0.0,0.0,89,0.00,-SN,SKC,0.00,WeatherDisplay:10.37,2013-03-25 22:40:00,
2013-03-25 23:50:00,27.3,24.5,29.71,North,1,0.0,0.0,89,0.00,BKN,SKC,0.00,WeatherDisplay:10.37,2013-03-25 22:50:00,